• In Deutschland
  • Länderverzeichnis
  • Für 7 Tage
  • Wassertemperatur
  • Satellitenkarten
  • Wetterkarte
  • Widgets
  • user-avatar
    Anmelden

    Stündliche Wetter Taunusstein

    Heute, 11 Dezember, Montag

    Zeit Temperatur Niederschläge Wind Luftdruck Luftfeuchtigkeit
    00:00 +2°C° 0,4 mm 5 m/S 703 mmHg 89%
    01:00 +2°C° 0,4 mm 5 m/S 704 mmHg 90%
    02:00 +3°C° 0,2 mm 4 m/S 704 mmHg 91%
    03:00 +2°C° 0,2 mm 3 m/S 704 mmHg 93%
    04:00 +4°C° 0,2 mm 1 m/S 705 mmHg 95%
    05:00 +3°C° 0,2 mm 1 m/S 704 mmHg 95%
    06:00 +3°C° 0,2 mm 1 m/S 704 mmHg 96%
    07:00 +3°C° 0,2 mm 1 m/S 703 mmHg 97%
    08:00 +2°C° 1,7 mm 2 m/S 703 mmHg 96%
    09:00 +1°C° 1,7 mm 3 m/S 703 mmHg 96%
    10:00 +2°C° 1,7 mm 3 m/S 703 mmHg 96%
    11:00 +1°C° 2,5 mm 4 m/S 702 mmHg 94%
    12:00 +1°C° 2,5 mm 4 m/S 702 mmHg 93%
    13:00 +1°C° 2,5 mm 4 m/S 701 mmHg 92%
    14:00 +3°C° 0,5 mm 4 m/S 701 mmHg 92%
    15:00 +3°C° 0,5 mm 3 m/S 702 mmHg 91%
    16:00 +3°C° 0,5 mm 3 m/S 702 mmHg 91%
    17:00 +3°C° 0,3 mm 3 m/S 702 mmHg 91%
    18:00 +3°C° 0,3 mm 4 m/S 702 mmHg 91%
    19:00 +4°C° 0,3 mm 4 m/S 703 mmHg 90%
    20:00 +3°C° 0 mm 5 m/S 703 mmHg 87%
    21:00 +3°C° 0 mm 5 m/S 703 mmHg 84%
    22:00 +3°C° 0 mm 6 m/S 703 mmHg 81%
    23:00 +3°C° 0 mm 6 m/S 704 mmHg 80%

    Morgen, 12 Dezember, Dienstag

    Zeit Temperatur Niederschläge Wind Luftdruck Luftfeuchtigkeit
    00:00 +2°C° 0 mm 6 m/S 705 mmHg 79%
    01:00 +2°C° 0 mm 7 m/S 705 mmHg 79%
    02:00 0°C° 0,1 mm 7 m/S 707 mmHg 79%
    03:00 -1°C° 0,1 mm 7 m/S 708 mmHg 79%
    04:00 -1°C° 0,1 mm 7 m/S 710 mmHg 80%
    05:00 -1°C° 0,1 mm 6 m/S 712 mmHg 79%
    06:00 -2°C° 0,1 mm 6 m/S 713 mmHg 78%
    07:00 -1°C° 0,1 mm 5 m/S 715 mmHg 78%
    08:00 -1°C° 0 mm 5 m/S 716 mmHg 78%
    09:00 -1°C° 0 mm 5 m/S 718 mmHg 78%
    10:00 -1°C° 0 mm 5 m/S 719 mmHg 78%
    11:00 -1°C° 0 mm 5 m/S 720 mmHg 76%
    12:00 0°C° 0 mm 5 m/S 721 mmHg 74%
    13:00 +1°C° 0 mm 5 m/S 721 mmHg 72%
    14:00 0°C° 0 mm 5 m/S 722 mmHg 74%
    15:00 0°C° 0 mm 5 m/S 722 mmHg 75%
    16:00 -1°C° 0 mm 4 m/S 723 mmHg 77%
    17:00 -1°C° 0 mm 4 m/S 724 mmHg 79%
    18:00 -1°C° 0 mm 4 m/S 725 mmHg 80%
    19:00 -1°C° 0 mm 3 m/S 725 mmHg 81%
    20:00 -1°C° 0 mm 3 m/S 726 mmHg 83%
    21:00 -2°C° 0 mm 3 m/S 726 mmHg 85%
    22:00 -2°C° 0 mm 3 m/S 727 mmHg 88%
    23:00 -2°C° 0 mm 3 m/S 727 mmHg 88%

    übermorgen, 13 Dezember, Mittwoch

    Zeit Temperatur Niederschläge Wind Luftdruck Luftfeuchtigkeit
    00:00 -2°C° 0 mm 3 m/S 727 mmHg 89%
    01:00 -2°C° 0 mm 3 m/S 727 mmHg 90%
    02:00 -2°C° 0 mm 3 m/S 727 mmHg 90%
    03:00 -2°C° 0 mm 3 m/S 726 mmHg 90%
    04:00 -2°C° 0 mm 3 m/S 726 mmHg 90%
    05:00 -3°C° 0 mm 4 m/S 726 mmHg 89%
    06:00 -3°C° 0 mm 4 m/S 726 mmHg 88%
    07:00 -2°C° 0 mm 4 m/S 725 mmHg 87%
    08:00 -2°C° 0 mm 5 m/S 725 mmHg 84%
    09:00 -1°C° 0 mm 5 m/S 725 mmHg 82%
    10:00 -1°C° 0 mm 5 m/S 724 mmHg 79%
    11:00 -2°C° 0,3 mm 6 m/S 723 mmHg 77%
    12:00 -1°C° 0,3 mm 6 m/S 722 mmHg 76%
    13:00 -1°C° 0,3 mm 7 m/S 721 mmHg 74%
    14:00 -1°C° 0,7 mm 6 m/S 721 mmHg 77%
    15:00 -1°C° 0,7 mm 6 m/S 720 mmHg 80%
    16:00 -1°C° 0,7 mm 6 m/S 720 mmHg 83%
    17:00 -1°C° 0,2 mm 6 m/S 719 mmHg 85%
    18:00 +1°C° 0,2 mm 5 m/S 719 mmHg 87%
    19:00 +1°C° 0,2 mm 5 m/S 718 mmHg 89%
    20:00 +1°C° 1,2 mm 5 m/S 718 mmHg 89%
    21:00 +2°C° 1,2 mm 6 m/S 717 mmHg 89%
    22:00 +2°C° 1,2 mm 6 m/S 717 mmHg 90%
    23:00 +2°C° 0,8 mm 5 m/S 717 mmHg 90%

    14 Dezember, Donnerstag

    Zeit Temperatur Niederschläge Wind Luftdruck Luftfeuchtigkeit
    00:00 +2°C° 0,8 mm 5 m/S 717 mmHg 90%
    01:00 +3°C° 0,8 mm 4 m/S 717 mmHg 90%
    02:00 +3°C° 0,2 mm 4 m/S 717 mmHg 89%
    03:00 +1°C° 0,2 mm 4 m/S 717 mmHg 87%
    04:00 +1°C° 0,2 mm 4 m/S 717 mmHg 86%
    05:00 0°C° 0 mm 4 m/S 717 mmHg 85%
    06:00 0°C° 0 mm 4 m/S 717 mmHg 84%
    07:00 0°C° 0 mm 4 m/S 717 mmHg 83%
    08:00 0°C° 0 mm 4 m/S 716 mmHg 84%
    09:00 0°C° 0 mm 5 m/S 716 mmHg 84%
    10:00 +1°C° 0 mm 6 m/S 715 mmHg 84%
    11:00 +2°C° 0 mm 6 m/S 714 mmHg 80%
    12:00 +2°C° 0 mm 7 m/S 713 mmHg 77%
    13:00 +2°C° 0 mm 8 m/S 712 mmHg 73%
    14:00 +2°C° 0,7 mm 8 m/S 711 mmHg 75%
    15:00 +2°C° 0,7 mm 8 m/S 711 mmHg 77%
    16:00 +3°C° 0,7 mm 7 m/S 710 mmHg 79%
    17:00 +2°C° 0,8 mm 6 m/S 710 mmHg 79%
    18:00 +1°C° 0,8 mm 5 m/S 710 mmHg 78%
    19:00 0°C° 0,8 mm 4 m/S 710 mmHg 77%
    20:00 0°C° 0,1 mm 4 m/S 710 mmHg 78%
    21:00 -1°C° 0,1 mm 4 m/S 711 mmHg 78%
    22:00 -1°C° 0,1 mm 4 m/S 712 mmHg 78%
    23:00 -1°C° 0 mm 4 m/S 713 mmHg 79%

    15 Dezember, Freitag

    Zeit Temperatur Niederschläge Wind Luftdruck Luftfeuchtigkeit
    00:00 -2°C° 0 mm 4 m/S 713 mmHg 80%
    01:00 -2°C° 0 mm 4 m/S 714 mmHg 80%
    02:00 -2°C° 0 mm 4 m/S 714 mmHg 81%
    03:00 -2°C° 0 mm 4 m/S 714 mmHg 81%
    04:00 -3°C° 0 mm 4 m/S 715 mmHg 81%
    05:00 -2°C° 0 mm 4 m/S 715 mmHg 82%
    06:00 -2°C° 0 mm 4 m/S 716 mmHg 84%
    07:00 -1°C° 0 mm 3 m/S 716 mmHg 85%
    08:00 -2°C° 0 mm 4 m/S 716 mmHg 86%
    09:00 -2°C° 0 mm 4 m/S 716 mmHg 86%
    10:00 -2°C° 0 mm 4 m/S 717 mmHg 86%
    11:00 -1°C° 0,2 mm 4 m/S 716 mmHg 84%
    12:00 -1°C° 0,2 mm 4 m/S 716 mmHg 83%
    13:00 0°C° 0,2 mm 4 m/S 716 mmHg 81%
    14:00 +1°C° 0 mm 3 m/S 716 mmHg 82%
    15:00 +1°C° 0 mm 3 m/S 716 mmHg 83%
    16:00 0°C° 0 mm 3 m/S 716 mmHg 84%
    17:00 +1°C° 0 mm 2 m/S 716 mmHg 85%
    18:00 +1°C° 0 mm 2 m/S 716 mmHg 87%
    19:00 +1°C° 0 mm 2 m/S 717 mmHg 88%
    20:00 +1°C° 0,1 mm 2 m/S 717 mmHg 89%
    21:00 -1°C° 0,1 mm 2 m/S 717 mmHg 90%
    22:00 -1°C° 0,1 mm 2 m/S 718 mmHg 91%
    23:00 -1°C° 0,1 mm 2 m/S 718 mmHg 91%

    16 Dezember, Samstag

    Zeit Temperatur Niederschläge Wind Luftdruck Luftfeuchtigkeit
    00:00 -1°C° 0,1 mm 2 m/S 718 mmHg 92%
    01:00 -1°C° 0,1 mm 2 m/S 719 mmHg 92%
    02:00 -1°C° 0,1 mm 2 m/S 719 mmHg 92%
    03:00 -1°C° 0,1 mm 2 m/S 719 mmHg 92%
    04:00 -1°C° 0,1 mm 2 m/S 720 mmHg 92%
    05:00 -2°C° 0 mm 2 m/S 720 mmHg 92%
    06:00 -2°C° 0 mm 2 m/S 720 mmHg 92%
    07:00 -3°C° 0 mm 2 m/S 720 mmHg 92%
    08:00 -2°C° 0 mm 2 m/S 721 mmHg 90%
    09:00 -2°C° 0 mm 2 m/S 722 mmHg 89%
    10:00 -2°C° 0 mm 2 m/S 723 mmHg 87%
    11:00 -1°C° 0 mm 2 m/S 723 mmHg 85%
    12:00 +1°C° 0 mm 2 m/S 723 mmHg 83%
    13:00 +1°C° 0 mm 3 m/S 723 mmHg 81%
    14:00 0°C° 0 mm 3 m/S 724 mmHg 82%
    15:00 0°C° 0 mm 3 m/S 724 mmHg 84%
    16:00 0°C° 0 mm 3 m/S 724 mmHg 85%
    17:00 0°C° 0 mm 3 m/S 725 mmHg 86%
    18:00 -1°C° 0 mm 2 m/S 725 mmHg 88%
    19:00 -1°C° 0 mm 2 m/S 726 mmHg 89%
    20:00 -1°C° 0 mm 3 m/S 726 mmHg 89%
    21:00 -1°C° 0 mm 3 m/S 726 mmHg 90%
    22:00 -1°C° 0 mm 3 m/S 726 mmHg 90%
    23:00 -2°C° 0 mm 3 m/S 726 mmHg 90%
    Mehr zeigen